,,,PA_Meas_PMT16A,,PR_Meas_QMR101_102,,RH_Meas_QMH101,,SR_Meas_QMS101,,TA_Meas_QMH101,,GenWind,,GenWind,
date,time,status,PA,status,PR,status,RH,status,SR,status,TA,status,DirAvg,status,SpdAvg,
2011-03-25, 00:00:04,VALID,1009.99,VALID,0,VALID,103.291,VALID,0,VALID,24.0643,VALID,116,VALID,0.530859,
2011-03-25, 00:01:04,VALID,1009.97,VALID,0,VALID,103.283,VALID,0,VALID,24.0643,VALID,105,VALID,0.725,
2011-03-25, 00:02:04,VALID,1009.97,VALID,0,VALID,103.298,VALID,0,VALID,24.0448,VALID,105,VALID,0.512891,
2011-03-25, 00:03:04,VALID,1009.93,VALID,0,VALID,103.291,VALID,0,VALID,24.0429,VALID,105,VALID,0.370703,
2011-03-25, 00:04:04,VALID,1009.94,VALID,0,VALID,103.314,VALID,0,VALID,24.0448,VALID,96,VALID,0.882813,
2011-03-25, 00:05:04,VALID,1009.9,VALID,0,VALID,103.314,VALID,0.105969,VALID,24.0448,VALID,119,VALID,0.352344,
2011-03-25, 00:06:04,VALID,1009.88,VALID,0,VALID,103.314,VALID,0,VALID,24.0643,VALID,139,VALID,0.680469,
2011-03-25, 00:07:04,VALID,1009.88,VALID,0,VALID,103.321,VALID,0,VALID,24.0235,VALID,139,VALID,0.353906,
2011-03-25, 00:08:04,VALID,1009.84,VALID,0,VALID,103.321,VALID,0,VALID,24.0643,VALID,139,VALID,0.0558594,
2011-03-25, 00:09:04,VALID,1009.84,VALID,0,VALID,103.337,VALID,0,VALID,24.0235,VALID,128,VALID,0.684375,
2011-03-25, 00:10:04,VALID,1009.81,VALID,0,VALID,103.337,VALID,0.105969,VALID,24.0235,VALID,134,VALID,0.751172,
2011-03-25, 00:11:04,VALID,1009.8,VALID,0,VALID,103.337,VALID,0,VALID,24.004,VALID,134,VALID,1.06602,
2011-03-25, 00:12:04,VALID,1009.78,VALID,0,VALID,103.329,VALID,0,VALID,24.0058,VALID,133,VALID,1.26094,
2011-03-25, 00:13:04,VALID,1009.8,VALID,0,VALID,103.321,VALID,0,VALID,23.9845,VALID,134,VALID,0.550781,
2011-03-25, 00:14:04,VALID,1009.76,VALID,0,VALID,103.314,VALID,0,VALID,24.004,VALID,134,VALID,0.453125,
2011-03-25, 00:15:04,VALID,1009.75,VALID,0,VALID,103.314,VALID,0.105969,VALID,23.9845,VALID,89,VALID,0.801562,
2011-03-25, 00:16:04,VALID,1009.74,VALID,0,VALID,103.298,VALID,0,VALID,23.9845,VALID,141,VALID,1.05039,
2011-03-25, 00:17:04,VALID,1009.77,VALID,0,VALID,103.298,VALID,0.105969,VALID,23.9845,VALID,138,VALID,1.15313,
2011-03-25, 00:18:04,VALID,1009.77,VALID,0,VALID,103.291,VALID,0,VALID,23.9863,VALID,127,VALID,0.746484,
2011-03-25, 00:19:04,VALID,1009.77,VALID,0,VALID,103.253,VALID,0.105969,VALID,23.965,VALID,140,VALID,0.581641,
2011-03-25, 00:20:04,VALID,1009.77,VALID,0,VALID,103.26,VALID,0,VALID,23.965,VALID,114,VALID,0.519531,
2011-03-25, 00:21:04,VALID,1009.76,VALID,0,VALID,103.207,VALID,0,VALID,23.9668,VALID,139,VALID,1.0582,
2011-03-25, 00:22:04,VALID,1009.75,VALID,0,VALID,103.192,VALID,0,VALID,23.9455,VALID,139,VALID,1.20391,
2011-03-25, 00:23:04,VALID,1009.74,VALID,0,VALID,103.207,VALID,0.105969,VALID,23.965,VALID,130,VALID,0.691016,
2011-03-25, 00:24:04,VALID,1009.72,VALID,0,VALID,103.169,VALID,0,VALID,23.9863,VALID,130,VALID,0.472266,
2011-03-25, 00:25:04,VALID,1009.72,VALID,0,VALID,103.161,VALID,0,VALID,23.965,VALID,130,VALID,0.35625,
2011-03-25, 00:26:04,VALID,1009.71,VALID,0,VALID,103.184,VALID,0.105969,VALID,23.9668,VALID,130,VALID,0.73125,
2011-03-25, 00:27:04,VALID,1009.7,VALID,0,VALID,103.169,VALID,0,VALID,23.9455,VALID,139,VALID,0.927344,
2011-03-25, 00:28:04,VALID,1009.68,VALID,0,VALID,103.161,VALID,0,VALID,23.9455,VALID,113,VALID,0.941016,
2011-03-25, 00:29:04,VALID,1009.69,VALID,0,VALID,103.161,VALID,0,VALID,23.9473,VALID,134,VALID,0.605469,
2011-03-25, 00:30:04,VALID,1009.67,VALID,0,VALID,103.169,VALID,0.105969,VALID,23.926,VALID,115,VALID,0.646094,
2011-03-25, 00:31:04,VALID,1009.68,VALID,0,VALID,103.176,VALID,0.105969,VALID,23.9473,VALID,117,VALID,0.767969,
2011-03-25, 00:32:04,VALID,1009.66,VALID,0,VALID,103.199,VALID,0,VALID,23.9473,VALID,124,VALID,0.501172,
2011-03-25, 00:33:04,VALID,1009.65,VALID,0,VALID,103.192,VALID,0,VALID,23.9473,VALID,127,VALID,0.761328,
2011-03-25, 00:34:04,VALID,1009.61,VALID,0,VALID,103.192,VALID,0,VALID,23.9065,VALID,127,VALID,0.680469,
2011-03-25, 00:35:04,VALID,1009.61,VALID,0,VALID,103.192,VALID,0,VALID,23.9065,VALID,127,VALID,0.878906,
2011-03-25, 00:36:04,VALID,1009.61,VALID,0,VALID,103.184,VALID,0,VALID,23.9278,VALID,126,VALID,1.00156,
2011-03-25, 00:37:04,VALID,1009.6,VALID,0,VALID,103.176,VALID,0,VALID,23.9065,VALID,126,VALID,0.691406,
2011-03-25, 00:38:04,VALID,1009.56,VALID,0,VALID,103.192,VALID,0.105969,VALID,23.9084,VALID,118,VALID,0.835938,
2011-03-25, 00:39:04,VALID,1009.56,VALID,0,VALID,103.199,VALID,0.105969,VALID,23.9065,VALID,115,VALID,0.65625,
2011-03-25, 00:40:04,VALID,1009.52,VALID,0,VALID,103.176,VALID,0.105969,VALID,23.8871,VALID,138,VALID,1.00937,
2011-03-25, 00:41:04,VALID,1009.5,VALID,0,VALID,103.169,VALID,0.105969,VALID,23.8871,VALID,118,VALID,0.878906,
2011-03-25, 00:42:04,VALID,1009.51,VALID,0,VALID,103.176,VALID,0,VALID,23.9084,VALID,126,VALID,0.726563,
2011-03-25, 00:43:04,VALID,1009.47,VALID,0,VALID,103.154,VALID,0.105969,VALID,23.8871,VALID,126,VALID,0.59375,
2011-03-25, 00:44:04,VALID,1009.46,VALID,0,VALID,103.146,VALID,0,VALID,23.8871,VALID,142,VALID,0.839844,
2011-03-25, 00:45:04,VALID,1009.45,VALID,0,VALID,103.138,VALID,0,VALID,23.9084,VALID,134,VALID,0.719141,
2011-03-25, 00:46:04,VALID,1009.41,VALID,0,VALID,103.154,VALID,0.105969,VALID,23.9065,VALID,134,VALID,0.796875,
2011-03-25, 00:47:04,VALID,1009.4,VALID,0,VALID,103.131,VALID,0.105969,VALID,23.9084,VALID,132,VALID,0.895703,
2011-03-25, 00:48:04,VALID,1009.39,VALID,0,VALID,103.123,VALID,0.105969,VALID,23.8871,VALID,139,VALID,1.04727,
2011-03-25, 00:49:04,VALID,1009.38,VALID,0,VALID,103.108,VALID,0,VALID,23.8676,VALID,128,VALID,1.04062,
2011-03-25, 00:50:04,VALID,1009.36,VALID,0,VALID,103.115,VALID,0.105969,VALID,23.8889,VALID,144,VALID,1.1707,
2011-03-25, 00:51:04,VALID,1009.33,VALID,0,VALID,103.108,VALID,0.105969,VALID,23.8676,VALID,128,VALID,0.901172,
2011-03-25, 00:52:04,VALID,1009.31,VALID,0,VALID,103.115,VALID,0.105969,VALID,23.8889,VALID,119,VALID,0.774219,
2011-03-25, 00:53:04,VALID,1009.28,VALID,0,VALID,103.115,VALID,0.105969,VALID,23.8694,VALID,125,VALID,1.21836,
2011-03-25, 00:54:04,VALID,1009.28,VALID,0,VALID,103.1,VALID,0.105969,VALID,23.8694,VALID,109,VALID,0.98125,
2011-03-25, 00:55:04,VALID,1009.28,VALID,0,VALID,103.1,VALID,0.105969,VALID,23.8676,VALID,132,VALID,1.06172,
2011-03-25, 00:56:04,VALID,1009.27,VALID,0,VALID,103.108,VALID,0.105969,VALID,23.8676,VALID,129,VALID,0.715234,
2011-03-25, 00:57:04,VALID,1009.26,VALID,0,VALID,103.115,VALID,0.105969,VALID,23.8676,VALID,127,VALID,0.816016,
2011-03-25, 00:58:04,VALID,1009.26,VALID,0,VALID,103.108,VALID,0.105969,VALID,23.8676,VALID,129,VALID,0.710938,
2011-03-25, 00:59:04,VALID,1009.21,VALID,0,VALID,103.108,VALID,0.105969,VALID,23.8676,VALID,129,VALID,0.624219,
2011-03-25, 01:00:04,VALID,1009.16,VALID,0,VALID,103.123,VALID,0,VALID,23.8676,VALID,120,VALID,0.857813,
2011-03-25, 01:01:04,VALID,1009.15,VALID,0,VALID,103.115,VALID,0.105969,VALID,23.8481,VALID,112,VALID,0.858203,
2011-03-25, 01:02:04,VALID,1009.12,VALID,0,VALID,103.131,VALID,0.105969,VALID,23.8481,VALID,122,VALID,1.1082,
2011-03-25, 01:03:04,VALID,1009.11,VALID,0,VALID,103.123,VALID,0.105969,VALID,23.8694,VALID,130,VALID,0.977734,
2011-03-25, 01:04:04,VALID,1009.07,VALID,0,VALID,103.123,VALID,0,VALID,23.8286,VALID,141,VALID,1.11016,
2011-03-25, 01:05:04,VALID,1009.04,VALID,0,VALID,103.146,VALID,0.105969,VALID,23.8286,VALID,128,VALID,0.503125,
2011-03-25, 01:06:04,VALID,1009.03,VALID,0,VALID,103.138,VALID,0.105969,VALID,23.8286,VALID,130,VALID,0.342578,
2011-03-25, 01:07:04,VALID,1009.01,VALID,0,VALID,103.169,VALID,0.105969,VALID,23.8286,VALID,119,VALID,0.980469,
2011-03-25, 01:08:04,VALID,1008.98,VALID,0,VALID,103.169,VALID,0.105969,VALID,23.8091,VALID,128,VALID,0.539453,
2011-03-25, 01:09:04,VALID,1008.98,VALID,0,VALID,103.192,VALID,0,VALID,23.8304,VALID,128,VALID,0.676953,
2011-03-25, 01:10:04,VALID,1008.94,VALID,0,VALID,103.215,VALID,0.105969,VALID,23.8091,VALID,128,VALID,0.530469,
2011-03-25, 01:11:04,VALID,1008.94,VALID,0,VALID,103.207,VALID,0.105969,VALID,23.7896,VALID,131,VALID,0.611328,
2011-03-25, 01:12:04,VALID,1008.91,VALID,0,VALID,103.23,VALID,0.105969,VALID,23.7914,VALID,135,VALID,0.554297,
2011-03-25, 01:13:04,VALID,1008.91,VALID,0,VALID,103.253,VALID,0.105969,VALID,23.7701,VALID,135,VALID,0.628906,
2011-03-25, 01:14:04,VALID,1008.9,VALID,0,VALID,103.268,VALID,0.105969,VALID,23.8109,VALID,127,VALID,0.528125,
2011-03-25, 01:15:04,VALID,1008.9,VALID,0,VALID,103.291,VALID,0.105969,VALID,23.7701,VALID,131,VALID,0.678906,
2011-03-25, 01:16:04,VALID,1008.91,VALID,0,VALID,103.291,VALID,0.105969,VALID,23.7507,VALID,156,VALID,0.725781,
2011-03-25, 01:17:04,VALID,1008.87,VALID,0,VALID,103.314,VALID,0,VALID,23.7507,VALID,144,VALID,0.742969,
2011-03-25, 01:18:04,VALID,1008.86,VALID,0,VALID,103.321,VALID,0,VALID,23.772,VALID,125,VALID,0.8875,
2011-03-25, 01:19:04,VALID,1008.82,VALID,0,VALID,103.321,VALID,0.105969,VALID,23.7507,VALID,134,VALID,0.697266,
2011-03-25, 01:20:04,VALID,1008.82,VALID,0,VALID,103.321,VALID,0.105969,VALID,23.772,VALID,122,VALID,0.482422,
2011-03-25, 01:21:04,VALID,1008.82,VALID,0,VALID,103.352,VALID,0,VALID,23.7525,VALID,109,VALID,0.392188,
2011-03-25, 01:22:04,VALID,1008.81,VALID,0,VALID,103.337,VALID,0.105969,VALID,23.7525,VALID,109,VALID,0.546094,
2011-03-25, 01:23:04,VALID,1008.82,VALID,0,VALID,103.337,VALID,0.105969,VALID,23.7312,VALID,144,VALID,0.189844,
2011-03-25, 01:24:04,VALID,1008.8,VALID,0,VALID,103.352,VALID,0.105969,VALID,23.7312,VALID,144,VALID,0.126953,
2011-03-25, 01:25:04,VALID,1008.8,VALID,0,VALID,103.337,VALID,0.105969,VALID,23.7117,VALID,144,VALID,0.464063,
2011-03-25, 01:26:04,VALID,1008.82,VALID,0,VALID,103.352,VALID,0,VALID,23.6922,VALID,144,VALID,0.0292969,
2011-03-25, 01:27:04,VALID,1008.81,VALID,0,VALID,103.352,VALID,0,VALID,23.733,VALID,144,VALID,0.507422,
2011-03-25, 01:28:04,VALID,1008.81,VALID,0,VALID,103.359,VALID,0,VALID,23.6922,VALID,118,VALID,0.839453,
2011-03-25, 01:29:04,VALID,1008.8,VALID,0,VALID,103.359,VALID,0.105969,VALID,23.7135,VALID,119,VALID,0.355469,
2011-03-25, 01:30:04,VALID,1008.82,VALID,0,VALID,103.382,VALID,0.105969,VALID,23.6922,VALID,119,VALID,0.419922,
2011-03-25, 01:31:04,VALID,1008.81,VALID,0,VALID,103.39,VALID,0.105969,VALID,23.6727,VALID,119,VALID,0.585938,
2011-03-25, 01:32:04,VALID,1008.79,VALID,0,VALID,103.398,VALID,0.105969,VALID,23.6727,VALID,119,VALID,0.624609,
2011-03-25, 01:33:04,VALID,1008.81,VALID,0,VALID,103.382,VALID,0.105969,VALID,23.694,VALID,119,VALID,0.601953,
2011-03-25, 01:34:04,VALID,1008.8,VALID,0,VALID,103.405,VALID,0.105969,VALID,23.6727,VALID,119,VALID,0.207813,
2011-03-25, 01:35:04,VALID,1008.79,VALID,0,VALID,103.405,VALID,0.105969,VALID,23.6727,VALID,119,VALID,0.417578,
2011-03-25, 01:36:04,VALID,1008.78,VALID,0,VALID,103.413,VALID,0.105969,VALID,23.694,VALID,119,VALID,0.694141,
2011-03-25, 01:37:04,VALID,1008.76,VALID,0,VALID,103.413,VALID,0.105969,VALID,23.694,VALID,119,VALID,0.767969,
2011-03-25, 01:38:04,VALID,1008.76,VALID,0,VALID,103.428,VALID,0,VALID,23.694,VALID,98,VALID,0.989844,
2011-03-25, 01:39:04,VALID,1008.79,VALID,0,VALID,103.413,VALID,0,VALID,23.6727,VALID,107,VALID,0.807813,
2011-03-25, 01:40:04,VALID,1008.76,VALID,0,VALID,103.405,VALID,0.105969,VALID,23.6727,VALID,103,VALID,0.152344,
2011-03-25, 01:41:04,VALID,1008.74,VALID,0,VALID,103.42,VALID,0,VALID,23.6727,VALID,103,VALID,0,
2011-03-25, 01:42:04,VALID,1008.7,VALID,0,VALID,103.398,VALID,0.105969,VALID,23.6532,VALID,92,VALID,1.04102,
2011-03-25, 01:43:04,VALID,1008.71,VALID,0,VALID,103.405,VALID,0.105969,VALID,23.6532,VALID,92,VALID,0.628516,
2011-03-25, 01:44:04,VALID,1008.7,VALID,0,VALID,103.42,VALID,0.105969,VALID,23.6532,VALID,91,VALID,0.776563,
2011-03-25, 01:45:04,VALID,1008.66,VALID,0,VALID,103.398,VALID,0,VALID,23.6532,VALID,97,VALID,0.546094,
2011-03-25, 01:46:04,VALID,1008.65,VALID,0,VALID,103.413,VALID,0,VALID,23.6532,VALID,97,VALID,0.683203,
2011-03-25, 01:47:04,VALID,1008.61,VALID,0,VALID,103.436,VALID,0,VALID,23.655,VALID,102,VALID,0.514063,
2011-03-25, 01:48:04,VALID,1008.59,VALID,0,VALID,103.413,VALID,0,VALID,23.6356,VALID,102,VALID,0.320313,
2011-03-25, 01:49:04,VALID,1008.58,VALID,0,VALID,103.405,VALID,0.105969,VALID,23.6143,VALID,102,VALID,0.248047,
2011-03-25, 01:50:04,VALID,1008.54,VALID,0,VALID,103.398,VALID,0.105969,VALID,23.6143,VALID,102,VALID,0.530469,
2011-03-25, 01:51:04,VALID,1008.53,VALID,0,VALID,103.428,VALID,0.105969,VALID,23.5948,VALID,118,VALID,0.497656,
2011-03-25, 01:52:04,VALID,1008.52,VALID,0,VALID,103.428,VALID,0.105969,VALID,23.5948,VALID,118,VALID,0.838672,
2011-03-25, 01:53:04,VALID,1008.47,VALID,0,VALID,103.436,VALID,0.105969,VALID,23.5948,VALID,113,VALID,1.02578,
2011-03-25, 01:54:04,VALID,1008.49,VALID,0,VALID,103.428,VALID,0,VALID,23.5753,VALID,112,VALID,0.855078,
2011-03-25, 01:55:04,VALID,1008.51,VALID,0,VALID,103.428,VALID,0,VALID,23.5753,VALID,116,VALID,0.399609,
2011-03-25, 01:56:04,VALID,1008.45,VALID,0,VALID,103.436,VALID,0.105969,VALID,23.5753,VALID,116,VALID,0.191406,
2011-03-25, 01:57:04,VALID,1008.47,VALID,0,VALID,103.466,VALID,0.105969,VALID,23.5771,VALID,116,VALID,0,
2011-03-25, 01:58:04,VALID,1008.45,VALID,0,VALID,103.474,VALID,0.105969,VALID,23.5771,VALID,116,VALID,0,
2011-03-25, 01:59:04,VALID,1008.43,VALID,0,VALID,103.459,VALID,0.105969,VALID,23.5363,VALID,116,VALID,0,
2011-03-25, 02:00:04,VALID,1008.43,VALID,0,VALID,103.466,VALID,0.105969,VALID,23.5169,VALID,116,VALID,0,
2011-03-25, 02:01:04,VALID,1008.43,VALID,0,VALID,103.481,VALID,0,VALID,23.5381,VALID,116,VALID,0,
2011-03-25, 02:02:04,VALID,1008.38,VALID,0,VALID,103.489,VALID,0,VALID,23.5169,VALID,116,VALID,0.141016,
2011-03-25, 02:03:04,VALID,1008.39,VALID,0,VALID,103.481,VALID,0,VALID,23.5186,VALID,116,VALID,0.124219,
2011-03-25, 02:04:04,VALID,1008.38,VALID,0,VALID,103.489,VALID,0,VALID,23.4779,VALID,116,VALID,0.00195313,
2011-03-25, 02:05:04,VALID,1008.36,VALID,0,VALID,103.466,VALID,0,VALID,23.4602,VALID,106,VALID,0.58125,
2011-03-25, 02:06:04,VALID,1008.36,VALID,0,VALID,103.504,VALID,0.105969,VALID,23.4584,VALID,96,VALID,0.5,
2011-03-25, 02:07:04,VALID,1008.34,VALID,0,VALID,103.512,VALID,0.105969,VALID,23.4584,VALID,96,VALID,0.345313,
2011-03-25, 02:08:04,VALID,1008.36,VALID,0,VALID,103.535,VALID,0.105969,VALID,23.4602,VALID,96,VALID,0.234375,
2011-03-25, 02:09:04,VALID,1008.36,VALID,0,VALID,103.55,VALID,0,VALID,23.4389,VALID,96,VALID,0.382813,
2011-03-25, 02:10:04,VALID,1008.33,VALID,0,VALID,103.542,VALID,0.105969,VALID,23.4,VALID,96,VALID,0.205859,
2011-03-25, 02:11:04,VALID,1008.3,VALID,0,VALID,103.558,VALID,0.105969,VALID,23.4017,VALID,96,VALID,0.0351563,
2011-03-25, 02:12:04,VALID,1008.29,VALID,0,VALID,103.55,VALID,0.105969,VALID,23.3805,VALID,90,VALID,0.633984,
2011-03-25, 02:13:04,VALID,1008.3,VALID,0,VALID,103.55,VALID,0,VALID,23.3805,VALID,72,VALID,0.400781,
2011-03-25, 02:14:04,VALID,1008.26,VALID,0,VALID,103.55,VALID,0.105969,VALID,23.361,VALID,72,VALID,0.218359,
2011-03-25, 02:15:04,VALID,1008.29,VALID,0,VALID,103.55,VALID,0.105969,VALID,23.3415,VALID,72,VALID,0.235938,
2011-03-25, 02:16:04,VALID,1008.29,VALID,0,VALID,103.573,VALID,0,VALID,23.322,VALID,72,VALID,0.363281,
2011-03-25, 02:17:04,VALID,1008.28,VALID,0,VALID,103.565,VALID,0.105969,VALID,23.322,VALID,72,VALID,0,
2011-03-25, 02:18:04,VALID,1008.31,VALID,0,VALID,103.581,VALID,0.105969,VALID,23.3026,VALID,72,VALID,0,
2011-03-25, 02:19:04,VALID,1008.28,VALID,0,VALID,103.596,VALID,0.105969,VALID,23.322,VALID,72,VALID,0,
2011-03-25, 02:20:04,VALID,1008.3,VALID,0,VALID,103.573,VALID,0.105969,VALID,23.3238,VALID,72,VALID,0,
2011-03-25, 02:21:04,VALID,1008.28,VALID,0,VALID,103.588,VALID,0.105969,VALID,23.3043,VALID,72,VALID,0,
2011-03-25, 02:22:04,VALID,1008.27,VALID,0,VALID,103.611,VALID,0,VALID,23.2831,VALID,72,VALID,0,
2011-03-25, 02:23:04,VALID,1008.27,VALID,0,VALID,103.603,VALID,0.105969,VALID,23.2831,VALID,72,VALID,0,
2011-03-25, 02:24:04,VALID,1008.26,VALID,0,VALID,103.588,VALID,0,VALID,23.2636,VALID,72,VALID,0,
2011-03-25, 02:25:04,VALID,1008.28,VALID,0,VALID,103.588,VALID,0.105969,VALID,23.2831,VALID,72,VALID,0,
2011-03-25, 02:26:04,VALID,1008.26,VALID,0,VALID,103.596,VALID,0,VALID,23.2831,VALID,72,VALID,0,
2011-03-25, 02:27:04,VALID,1008.27,VALID,0,VALID,103.588,VALID,0.105969,VALID,23.3043,VALID,72,VALID,0,
2011-03-25, 02:28:04,VALID,1008.25,VALID,0,VALID,103.588,VALID,0,VALID,23.3043,VALID,72,VALID,0,
2011-03-25, 02:29:04,VALID,1008.25,VALID,0,VALID,103.619,VALID,0,VALID,23.2848,VALID,72,VALID,0.158203,
2011-03-25, 02:30:04,VALID,1008.24,VALID,0,VALID,103.588,VALID,0.105969,VALID,23.3043,VALID,72,VALID,0.177734,
2011-03-25, 02:31:04,VALID,1008.2,VALID,0,VALID,103.603,VALID,0,VALID,23.2848,VALID,72,VALID,0.253516,
2011-03-25, 02:32:04,VALID,1008.2,VALID,0,VALID,103.588,VALID,0,VALID,23.2636,VALID,72,VALID,0,
2011-03-25, 02:33:04,VALID,1008.2,VALID,0,VALID,103.581,VALID,0,VALID,23.2636,VALID,72,VALID,0,
2011-03-25, 02:34:04,VALID,1008.2,VALID,0,VALID,103.603,VALID,0.105969,VALID,23.2848,VALID,72,VALID,0,
2011-03-25, 02:35:04,VALID,1008.18,VALID,0,VALID,103.603,VALID,0,VALID,23.2636,VALID,72,VALID,0,
2011-03-25, 02:36:04,VALID,1008.18,VALID,0,VALID,103.596,VALID,0,VALID,23.2848,VALID,72,VALID,0,
2011-03-25, 02:37:04,VALID,1008.15,VALID,0,VALID,103.581,VALID,0,VALID,23.3043,VALID,72,VALID,0,
2011-03-25, 02:38:04,VALID,1008.1,VALID,0,VALID,103.603,VALID,0,VALID,23.3043,VALID,72,VALID,0,
2011-03-25, 02:39:04,VALID,1008.12,VALID,0,VALID,103.588,VALID,0,VALID,23.3043,VALID,72,VALID,0,
2011-03-25, 02:40:04,VALID,1008.08,VALID,0,VALID,103.603,VALID,0,VALID,23.2831,VALID,72,VALID,0,
2011-03-25, 02:41:04,VALID,1008.09,VALID,0,VALID,103.596,VALID,0,VALID,23.2831,VALID,72,VALID,0.0292969,
2011-03-25, 02:42:04,VALID,1008.07,VALID,0,VALID,103.588,VALID,0.105969,VALID,23.2636,VALID,72,VALID,0.0382813,
2011-03-25, 02:43:04,VALID,1008.05,VALID,0,VALID,103.588,VALID,0.105969,VALID,23.2636,VALID,72,VALID,0,
2011-03-25, 02:44:04,VALID,1008.03,VALID,0,VALID,103.581,VALID,0,VALID,23.2848,VALID,72,VALID,0.0695312,
2011-03-25, 02:45:04,VALID,1008.04,VALID,0,VALID,103.558,VALID,0.105969,VALID,23.2831,VALID,72,VALID,0,
2011-03-25, 02:46:04,VALID,1008.01,VALID,0,VALID,103.573,VALID,0.105969,VALID,23.2831,VALID,72,VALID,0,
2011-03-25, 02:47:04,VALID,1008.03,VALID,0,VALID,103.581,VALID,0.105969,VALID,23.2831,VALID,72,VALID,0,
2011-03-25, 02:48:04,VALID,1008.01,VALID,0,VALID,103.573,VALID,0.105969,VALID,23.2831,VALID,72,VALID,0,
2011-03-25, 02:49:04,VALID,1007.99,VALID,0,VALID,103.558,VALID,0.105969,VALID,23.3026,VALID,72,VALID,0,
2011-03-25, 02:50:04,VALID,1008.01,VALID,0,VALID,103.558,VALID,0,VALID,23.3026,VALID,72,VALID,0.0996094,
2011-03-25, 02:51:04,VALID,1007.97,VALID,0,VALID,103.55,VALID,0,VALID,23.3026,VALID,72,VALID,0,
2011-03-25, 02:52:04,VALID,1007.95,VALID,0,VALID,103.565,VALID,0.105969,VALID,23.3043,VALID,72,VALID,0,
2011-03-25, 02:53:04,VALID,1007.96,VALID,0,VALID,103.573,VALID,0,VALID,23.3238,VALID,72,VALID,0,
2011-03-25, 02:54:04,VALID,1007.96,VALID,0,VALID,103.565,VALID,0,VALID,23.3043,VALID,72,VALID,0,
2011-03-25, 02:55:04,VALID,1007.94,VALID,0,VALID,103.55,VALID,0.105969,VALID,23.3043,VALID,72,VALID,0,
2011-03-25, 02:56:04,VALID,1007.92,VALID,0,VALID,103.55,VALID,0,VALID,23.3026,VALID,72,VALID,0,
2011-03-25, 02:57:04,VALID,1007.91,VALID,0,VALID,103.527,VALID,0.105969,VALID,23.3026,VALID,72,VALID,0,
2011-03-25, 02:58:04,VALID,1007.91,VALID,0,VALID,103.542,VALID,0.105969,VALID,23.3238,VALID,72,VALID,0,
2011-03-25, 02:59:04,VALID,1007.92,VALID,0,VALID,103.527,VALID,0,VALID,23.3026,VALID,72,VALID,0.251953,
2011-03-25, 03:00:04,VALID,1007.92,VALID,0,VALID,103.55,VALID,0,VALID,23.3026,VALID,72,VALID,0.432422,
2011-03-25, 03:01:04,VALID,1007.92,VALID,0,VALID,103.512,VALID,0,VALID,23.3026,VALID,73,VALID,0.358984,
2011-03-25, 03:02:04,VALID,1007.92,VALID,0,VALID,103.527,VALID,0,VALID,23.3433,VALID,73,VALID,0.05625,
2011-03-25, 03:03:04,VALID,1007.92,VALID,0,VALID,103.512,VALID,0,VALID,23.3238,VALID,73,VALID,0.222656,
2011-03-25, 03:04:04,VALID,1007.93,VALID,0,VALID,103.52,VALID,0,VALID,23.3026,VALID,73,VALID,0.163281,
2011-03-25, 03:05:04,VALID,1007.91,VALID,0,VALID,103.52,VALID,0.105969,VALID,23.3238,VALID,73,VALID,0.0175781,
2011-03-25, 03:06:04,VALID,1007.91,VALID,0,VALID,103.527,VALID,0,VALID,23.3238,VALID,73,VALID,0,
2011-03-25, 03:07:04,VALID,1007.89,VALID,0,VALID,103.504,VALID,0,VALID,23.3238,VALID,85,VALID,0.63125,
2011-03-25, 03:08:04,VALID,1007.9,VALID,0,VALID,103.535,VALID,0.105969,VALID,23.3026,VALID,85,VALID,0.244531,
2011-03-25, 03:09:04,VALID,1007.91,VALID,0,VALID,103.527,VALID,0,VALID,23.3043,VALID,85,VALID,0.3125,
2011-03-25, 03:10:04,VALID,1007.91,VALID,0,VALID,103.512,VALID,0,VALID,23.3043,VALID,86,VALID,0.474609,
2011-03-25, 03:11:04,VALID,1007.9,VALID,0,VALID,103.512,VALID,0.105969,VALID,23.2831,VALID,91,VALID,0.419531,
2011-03-25, 03:12:04,VALID,1007.93,VALID,0,VALID,103.489,VALID,0.105969,VALID,23.2636,VALID,91,VALID,0.537109,
2011-03-25, 03:13:04,VALID,1007.92,VALID,0,VALID,103.489,VALID,0.105969,VALID,23.2848,VALID,91,VALID,0.792969,
2011-03-25, 03:14:04,VALID,1007.92,VALID,0,VALID,103.489,VALID,0,VALID,23.2848,VALID,91,VALID,0.483594,
2011-03-25, 03:15:04,VALID,1007.92,VALID,0,VALID,103.481,VALID,0.105969,VALID,23.2848,VALID,91,VALID,0.558203,
2011-03-25, 03:16:04,VALID,1007.93,VALID,0,VALID,103.481,VALID,0.105969,VALID,23.2636,VALID,91,VALID,0.427734,
2011-03-25, 03:17:04,VALID,1007.91,VALID,0,VALID,103.466,VALID,0.105969,VALID,23.2636,VALID,91,VALID,0.365234,
2011-03-25, 03:18:04,VALID,1007.91,VALID,0,VALID,103.451,VALID,0.105969,VALID,23.2831,VALID,91,VALID,0.251563,
2011-03-25, 03:19:04,VALID,1007.91,VALID,0,VALID,103.466,VALID,0.105969,VALID,23.2831,VALID,91,VALID,0.3125,
2011-03-25, 03:20:04,VALID,1007.93,VALID,0,VALID,103.428,VALID,0,VALID,23.2831,VALID,91,VALID,0.466797,
2011-03-25, 03:21:04,VALID,1007.91,VALID,0,VALID,103.443,VALID,0.105969,VALID,23.2636,VALID,91,VALID,0.365234,
2011-03-25, 03:22:04,VALID,1007.88,VALID,0,VALID,103.443,VALID,0.105969,VALID,23.2848,VALID,91,VALID,0.324219,
2011-03-25, 03:23:04,VALID,1007.88,VALID,0,VALID,103.436,VALID,0.105969,VALID,23.2831,VALID,91,VALID,0.225781,
2011-03-25, 03:24:04,VALID,1007.85,VALID,0,VALID,103.443,VALID,0.105969,VALID,23.2636,VALID,91,VALID,0.759766,
2011-03-25, 03:25:04,VALID,1007.81,VALID,0,VALID,103.428,VALID,0,VALID,23.2654,VALID,91,VALID,0.792969,
2011-03-25, 03:26:04,VALID,1007.81,VALID,0,VALID,103.443,VALID,0,VALID,23.2636,VALID,91,VALID,0.605469,
2011-03-25, 03:27:04,VALID,1007.83,VALID,0,VALID,103.428,VALID,0,VALID,23.2441,VALID,91,VALID,0.523438,
2011-03-25, 03:28:04,VALID,1007.83,VALID,0,VALID,103.428,VALID,0.105969,VALID,23.2441,VALID,91,VALID,0.755469,
2011-03-25, 03:29:04,VALID,1007.82,VALID,0,VALID,103.428,VALID,0.105969,VALID,23.2246,VALID,91,VALID,0.519531,
2011-03-25, 03:30:04,VALID,1007.81,VALID,0,VALID,103.428,VALID,0.105969,VALID,23.2264,VALID,91,VALID,0.326172,
2011-03-25, 03:31:04,VALID,1007.81,VALID,0,VALID,103.428,VALID,0.105969,VALID,23.2051,VALID,91,VALID,0.357031,
2011-03-25, 03:32:04,VALID,1007.79,VALID,0,VALID,103.451,VALID,0,VALID,23.2051,VALID,91,VALID,0.0640625,
2011-03-25, 03:33:04,VALID,1007.78,VALID,0,VALID,103.42,VALID,0,VALID,23.1857,VALID,91,VALID,0.387109,
2011-03-25, 03:34:04,VALID,1007.79,VALID,0,VALID,103.436,VALID,0,VALID,23.2051,VALID,91,VALID,0.298828,
2011-03-25, 03:35:04,VALID,1007.8,VALID,0,VALID,103.428,VALID,0,VALID,23.2264,VALID,91,VALID,0.296875,
2011-03-25, 03:36:04,VALID,1007.8,VALID,0,VALID,103.42,VALID,0.105969,VALID,23.1874,VALID,91,VALID,0.376563,
2011-03-25, 03:37:04,VALID,1007.83,VALID,0,VALID,103.42,VALID,0,VALID,23.1857,VALID,91,VALID,0.00585938,
2011-03-25, 03:38:04,VALID,1007.84,VALID,0,VALID,103.436,VALID,0,VALID,23.1874,VALID,91,VALID,0,
2011-03-25, 03:39:04,VALID,1007.81,VALID,0,VALID,103.42,VALID,0.105969,VALID,23.1857,VALID,91,VALID,0,
2011-03-25, 03:40:04,VALID,1007.83,VALID,0,VALID,103.398,VALID,0.105969,VALID,23.1874,VALID,91,VALID,0,